TimeEDT,TemperatureF,Dew PointF,Humidity,Sea Level PressureIn,VisibilityMPH,Wind Direction,Wind SpeedMPH,Gust SpeedMPH,PrecipitationIn,Events,Conditions,WindDirDegrees,DateUTC
12:53 AM,42.1,28.0,58,30.25,10.0,Calm,Calm,-,N/A,,Overcast,0,2013-03-29 04:53:00
1:53 AM,42.1,28.0,58,30.26,10.0,WNW,5.8,-,N/A,,Overcast,300,2013-03-29 05:53:00
2:53 AM,42.1,28.9,60,30.25,10.0,NW,5.8,-,N/A,,Overcast,320,2013-03-29 06:53:00
3:53 AM,41.0,28.9,62,30.25,10.0,NNW,4.6,-,N/A,,Overcast,330,2013-03-29 07:53:00
4:53 AM,41.0,28.9,62,30.25,10.0,Calm,Calm,-,N/A,,Overcast,0,2013-03-29 08:53:00
5:53 AM,36.0,28.0,73,30.25,10.0,Calm,Calm,-,N/A,,Mostly Cloudy,0,2013-03-29 09:53:00
6:53 AM,36.0,30.0,79,30.25,10.0,Calm,Calm,-,N/A,,Overcast,0,2013-03-29 10:53:00
7:53 AM,39.0,28.9,67,30.26,10.0,Calm,Calm,-,N/A,,Overcast,0,2013-03-29 11:53:00
8:53 AM,39.9,30.0,68,30.26,10.0,Calm,Calm,-,N/A,,Overcast,0,2013-03-29 12:53:00
9:53 AM,43.0,30.0,60,30.27,10.0,Calm,Calm,-,N/A,,Overcast,0,2013-03-29 13:53:00
10:53 AM,46.0,30.0,54,30.26,10.0,Variable,3.5,-,N/A,,Overcast,0,2013-03-29 14:53:00
11:53 AM,48.9,30.0,48,30.24,10.0,Calm,Calm,-,N/A,,Scattered Clouds,0,2013-03-29 15:53:00
12:53 PM,53.1,28.0,38,30.21,10.0,NNW,8.1,-,N/A,,Mostly Cloudy,340,2013-03-29 16:53:00
1:53 PM,52.0,26.1,37,30.20,10.0,NW,11.5,-,N/A,,Overcast,310,2013-03-29 17:53:00
2:53 PM,52.0,24.1,34,30.18,10.0,Variable,4.6,-,N/A,,Overcast,0,2013-03-29 18:53:00
3:53 PM,54.0,23.0,30,30.17,10.0,NW,9.2,17.3,N/A,,Mostly Cloudy,310,2013-03-29 19:53:00
4:53 PM,53.1,21.0,29,30.15,10.0,NW,9.2,-,N/A,,Overcast,320,2013-03-29 20:53:00
5:53 PM,52.0,21.0,30,30.16,10.0,West,11.5,-,N/A,,Mostly Cloudy,280,2013-03-29 21:53:00
6:53 PM,52.0,21.9,31,30.16,10.0,NW,5.8,-,N/A,,Overcast,320,2013-03-29 22:53:00
7:53 PM,50.0,21.9,33,30.17,10.0,WNW,3.5,-,N/A,,Mostly Cloudy,290,2013-03-29 23:53:00
8:53 PM,46.9,24.1,41,30.19,10.0,North,4.6,-,N/A,,Overcast,10,2013-03-30 00:53:00
9:53 PM,48.0,24.1,39,30.20,10.0,NNE,3.5,-,N/A,,Overcast,30,2013-03-30 01:53:00
10:53 PM,41.0,25.0,53,30.21,7.0,Calm,Calm,-,N/A,,Scattered Clouds,0,2013-03-30 02:53:00
11:53 PM,39.9,26.1,58,30.20,10.0,Calm,Calm,-,N/A,,Mostly Cloudy,0,2013-03-30 03:53:00